Weather WX

World > North America > United States > Minnesota

Waterford, Minnesota Regional Weather

Lat: 44.45N, Lon: 93.18W
Wx Zone: MNZ077
Warning FLW WEATHER ALERT - (More Info. Click Here) Warning
Feedback

Waterford, MN Regional Weather

Expires:201906210000;;810722
ASUS43 KMPX 202310
RWRMN 
WEATHER ROUNDUP FOR MINNESOTA
NATIONAL WEATHER SERVICE TWIN CITIES/CHANHASSEN MN
600 PM CDT THU JUN 20 2019


NOTE: "FAIR" INDICATES FEW OR NO CLOUDS BELOW 12,000 FEET WITH NO
SIGNIFICANT WEATHER AND/OR OBSTRUCTIONS TO VISIBILITY. N/A MEANS
CURRENT SKY AND/OR WEATHER CONDITIONS ARE NOT AVAILABLE.


MNZ065>067-074>077-082>085-091>093-210000-
   South Central Minnesota  
  
CITY           SKY/WX    TMP DP  RH WIND       PRES   REMARKS
MANKATO        CLOUDY    65  62  90 E13       29.79F                  
NEW ULM        CLOUDY    66  61  82 E10       29.75S                  
ST JAMES       MOSUNNY   77  63  61 SE21      29.72F                  
FAIRMONT       MOSUNNY   73  61  65 S14       29.76F                  
OWATONNA       LGT RAIN  63  61  94 E12       29.83                   
WASECA         CLOUDY    64  59  82 E15       29.81F                  
ALBERT LEA     PTSUNNY   70  57  64 SE9       29.81S                  
$$

SKY/WX - Weather  TMP - Temperature  DP - Dew Point  RH - Relative Humidity
WIND - Wind Direction/Speed PRES - Barometric Pressure VSB - Visibility
WCI - Wind Chill Index E13G22 Wind - East Wind 13 mph/Gusts of 22 mph